Orbital Elements at Epoch 2459000.5 (2020-May-31.0) TDB
Reference: JPL 6 (heliocentric ecliptic J2000)
Element | Value | Uncertainty (1-sigma) | Units |
e | .4095943343746976 | 3.7862e-05 | |
a | 1.277728616048366 | 5.6007e-05 | au |
q | .7543782140465318 | 1.5314e-05 | au |
i | 5.966810870778345 | 0.00053373 | deg |
node | 195.6194977361419 | 1.113e-05 | deg |
peri | 278.9441425575566 | 0.00017239 | deg |
M | 76.1085711941184 | 0.0061831 | deg |
tp | 2458888.971097881989 (2020-Feb-09.47109788) | 0.0017277 | TDB |
period | 527.5411708896575 1.44 | 0.034686 9.497e-05 | d yr |
n | .682411193410531 | 4.4869e-05 | deg/d |
Q | 1.8010790180502 | 7.8948e-05 | au |
|
| | Orbit Determination Parameters
Additional Information
|